Location: ????????
(55.3939°N, 37.4780°E)
Time: 07:15:38
(UTC+00:00)

CZ-2C R/B - Pass Details

Date: 14 April 2026
Orbit: 781 x 868 km, 98.4° (Epoch: 13 May)

Event Time Altitude Azimuth Distance (km) Brightness Sun altitude
Exits shadow 22:44:52 31° 259° (W) 1,477 3.7 -23.1°
Maximum altitude 22:45:15 31° 267° (W) 1,468 3.7 -23.1°
Drops below altitude 10° 22:50:06 10° 329° (NNW) 2,478 5.6 -22.8°
Sets 22:52:44 0° 340° (NNW) 3,404 6.6 -22.7°
